BEARDSLEY LAKE (BRD)

Elevation: 3398' · STANISLAUS R basin · Operator: US Bureau of Reclamation

Provisional data, subject to change.
Query executed Friday at 20:03:49   clock

Select a sensor type for a plot of data.
Note: Reservoir Flows are daily averages.

Earlier

Date STORAGE    RES CHG    OUTFLOW    PPT INC   
 AF   AF   CFS   INCHES  
11/20/2014 44027 -54 201 0.09
11/21/2014 43754 -273 266 0.11
11/22/2014 43227 -527 398 0.90
11/23/2014 42739 -488 396 0.07
11/24/2014 42179 -560 395 0.00
11/25/2014 41758 -421 398 0.00
11/26/2014 41250 -508 400 0.00
11/27/2014 40639 -611 400 0.00
11/28/2014 40161 -478 397 0.00
11/29/2014 39622 -539 381 0.00
11/30/2014 39113 -509 381 0.74
12/01/2014 38810 -303 402 0.34
12/02/2014 38656 -154 393 0.06
12/03/2014 38390 -266 399 1.39
12/04/2014 37981 -409 399 1.01
12/05/2014 37468 -513 397 0.05
12/06/2014 37023 -445 400 0.03
12/07/2014 36957 -66 400 0.00
12/08/2014 36846 -111 400 0.00
12/09/2014 36750 -96 401 0.00
12/10/2014 36649 -101 402 0.00
12/11/2014 36458 -191 381 0.00
12/12/2014 36493 35 420 1.89
12/13/2014 36282 -211 404 0.22
12/14/2014 36191 -91 399 0.00
12/15/2014 36171 -20 399 0.00
12/16/2014 36161 -10 399 0.22
12/17/2014 36056 -105 396 0.46
12/18/2014 35996 -60 395 0.00
12/19/2014 -- -- -- --

Later | Latest

Warning! This data is preliminary and subject to revision.

Show BRD Map | Plot BRD Data | 1 Month BRD Data | Real-Time BRD Data | BRD Info